[Iaude] MPEC L26: 2024 LF [a=2.16,e=0.69,i=6.4,H=25.1]
    mpec at cfa.harvard.edu 
    mpec at cfa.harvard.edu
       
    Mon Jun  3 05:07:43 EDT 2024
    
    
  
M.P.E.C. 2024-L26                                  Issued 2024 June 3, 09:06 UT
     The Minor Planet Electronic Circulars contain information on unusual
         minor planets, routine data on comets and natural satellites,
         and occasional editorial announcements.  They are published
    on behalf of Division F of the International Astronomical Union by the
          Minor Planet Center, Smithsonian Astrophysical Observatory,
                          Cambridge, MA 02138, U.S.A.
			  
             Prepared using the Tamkin Foundation Computer Network
                              MPC at CFA.HARVARD.EDU
            URL https://www.minorplanetcenter.net/    ISSN 1523-6714
                                    2024 LF                                     
Observations:
     K24L00F*1C2024 06 01.43267017 14 31.348-02 50 12.84         20.25GVEL026G96
     K24L00F 1C2024 06 01.43890217 14 29.512-02 50 37.25         20.33GVEL026G96
     K24L00F 1C2024 06 01.44513317 14 27.640-02 51 01.44         20.92GVEL026G96
     K24L00F 1C2024 06 01.45137117 14 25.753-02 51 25.38         20.69GVEL026G96
     K24L00F KB2024 06 02.07736317 11 51.81 -03 29 21.2          21.0 GXEL026I93
     K24L00F KB2024 06 02.08869517 11 48.87 -03 29 58.9          20.9 GXEL026I93
     K24L00F  C2024 06 02.27364117 11 10.371-03 39 51.56         21.8 GVEL026H01
     K24L00F  C2024 06 02.27703717 11 09.509-03 40 02.34         20.6 GVEL026H01
     K24L00F  C2024 06 02.28814817 11 06.688-03 40 37.96         20.8 GVEL026H01
     K24L00F KC2024 06 02.29288117 11 05.40 -03 40 54.4          20.7 GXEL026858
     K24L00F  C2024 06 02.29484517 11 04.993-03 40 59.34         21.0 GVEL026H01
     K24L00F KC2024 06 02.29609917 11 05.006-03 41 01.57         20.32GVEL026I52
     K24L00F KC2024 06 02.29768517 11 04.582-03 41 06.47         20.53GVEL026I52
     K24L00F KC2024 06 02.29798417 11 04.10 -03 41 11.0          20.6 GXEL026858
     K24L00F KC2024 06 02.29927117 11 04.168-03 41 11.69         20.78GVEL026I52
     K24L00F KC2024 06 02.30582817 11 02.13 -03 41 35.7          20.6 GXEL026858
     K24L00F KC2024 06 03.23908517 07 56.88 -04 26 31.8          21.4 GVEL026H21
     K24L00F KC2024 06 03.24904517 07 54.84 -04 26 58.3          21.1 GVEL026H21
     K24L00F KC2024 06 03.25308117 07 55.902-04 27 00.32         20.68GVEL026I52
     K24L00F KC2024 06 03.25471017 07 55.556-04 27 04.57         21.89GVEL026I52
     K24L00F KC2024 06 03.25635317 07 55.222-04 27 08.78         21.71GVEL026I52
     K24L00F KC2024 06 03.25799517 07 54.880-04 27 13.10         21.00GVEL026I52
     K24L00F !C2024 06 03.36036 17 07 34.26 -04 31 39.9          20.8 GVEL026673
     K24L00F !C2024 06 03.36648 17 07 32.98 -04 31 55.0                VEL026673
Observer details:
673 Table Mountain Observatory, Wrightwood.  Observer J. Pittichova.  1.0-m
    f/15 reflector + CCD.
858 Tebbutt Observatory, Edgewood.  Observer F. B. Zoltowski.  0.51-m f/8.1
    Schmidt-Cassegrain + CCD.
G96 Mt. Lemmon Survey.  Observer J. B. Fazekas.  Measurers T. Beuden, V. F.
    Carvajal, D. Fay, J. B. Fazekas, D. C. Fuls, A. R. Gibbs, A. D. Grauer, H.
    Groeller, J. K. Hogan, R. A. Kowalski, S. M. Larson, G. J. Leonard, D.
    Rankin, R. L. Seaman, F. C. Shelly, K. W. Wierzchos.  1.5-m reflector +
    10K CCD.
H01 Magdalena Ridge Observatory, Socorro.  Observers W. H. Ryan, E. V. Ryan.
    Measurer W. H. Ryan.  2.4-m f/8.9 Ritchey-Chretien + CCD.
H21 Astronomical Research Observatory, Westfield.  Observer R. Holmes.
    Measurers T. Linder, R. Holmes, L. Horn.  0.81-m f/4.0 astrograph + CCD.
I52 Steward Observatory, Mt. Lemmon Station.  Observer K. W. Wierzchos.
    Measurers T. Beuden, V. F. Carvajal, D. Fay, J. B. Fazekas, D. C. Fuls, A.
    R. Gibbs, A. D. Grauer, H. Groeller, J. K. Hogan, R. A. Kowalski, S. M.
    Larson, G. J. Leonard, D. Rankin, R. L. Seaman, F. C. Shelly, K. W.
    Wierzchos.  1.0-m prime focus + CCD.
I93 St Pardon de Conques.  Observer F. Losse.  0.40-m f/3.7 reflector + CMO.
Orbital elements:
2024 LF                                                  Earth MOID = 0.0131 AU
Epoch 2024 Mar. 31.0 TT = JDT 2460400.5                 MPC                     
M 357.25200              (2000.0)            P               Q                  
n   0.31088475     Peri.  286.59966     -0.95962502     -0.26472106             
a   2.1580911      Node   238.14059     +0.28123823     -0.89698699             
e   0.6895356      Incl.    6.42830     +0.00498805     -0.35402980             
P   3.17           H   25.16          G   0.15           U   9                  
Residuals in seconds of arc
240601 G96  0.2-  0.1+    240602 H01  0.1+  0.1+    240603 H21  0.3-  0.3+
240601 G96  0.3+  0.1-    240602 858  0.3+  0.2+    240603 H21  0.1+  0.2-
240601 G96  0.2+  0.1-    240602 H01  0.2+  0.1+    240603 I52  0.3+  0.1-
240601 G96  0.3-  0.1+    240602 I52  0.0   0.2-    240603 I52  0.2+  0.1-
240602 I93  0.7+  0.3+    240602 I52  0.4-  0.0     240603 I52  0.3+  0.0
240602 I93  0.5+  0.4+    240602 858  0.2+  0.1-    240603 I52  0.2+  0.0
240602 H01  0.1+  0.0     240602 I52  0.6-  0.2-    240603 673  0.1+  0.1-
240602 H01  0.1+  0.1+    240602 858  0.4+  0.2+    240603 673  0.3-  0.4+
Ephemeris:
2024 LF                  a,e,i = 2.16, 0.69, 6                   q = 0.6700
Date    TT    R. A. (2000) Decl.     Delta      r    Elong.  Phase     V
2024 05 04    04 24 08.3 +13 45 39   0.2396  0.7956    24.1   148.9    29.8
...
2024 05 19    03 56 30.5 +20 05 23   0.06763 0.9441     3.0   176.8
...
2024 05 27    18 31 28.4 +15 01 53   0.02731 1.0312   130.8    48.1    19.2
...
2024 06 02    17 12 11.7 -03 23 44   0.08870 1.0978   159.7    18.7    21.1
2024 06 03    17 08 40.6 -04 14 49   0.09955 1.1089   161.0    17.3    21.3
2024 06 04    17 05 49.7 -04 56 26   0.1105  1.1201   162.0    16.2    21.5
...
2024 06 10    16 56 06.4 -07 26 29   0.1776  1.1869   163.9    13.7    22.6
...
2024 06 18    16 51 17.7 -09 08 44   0.2718  1.2755   160.6    15.4    23.7
...
2024 07 03    16 51 13.4 -11 08 58   0.4655  1.4376   149.6    21.0    25.3
A. U. Tomatic                (C) Copyright 2024 MPC           M.P.E.C. 2024-L26
    
    
More information about the Iaude
mailing list